Millville, NJ

12:43 AM EST on December 12, 2017 (GMT -0500)
Millville Municipal

Weather History for KMIV - October, 2011

Change the Weather History Date:

Sunday, October 2, 2011

  Actual Average Record
Temperature  
Mean Temperature 52 °F -  
Max Temperature 54 °F 71 °F 86 °F (1952)
Min Temperature 48 °F 51 °F 32 °F (1997)
Degree Days  
Heating Degree Days 14    
Growing Degree Days 2 (Base 50)    
Moisture  
Dew Point 47 °F    
Average Humidity 86    
Maximum Humidity 94    
Minimum Humidity 74    
Precipitation  
Precipitation 0.06 in - - ()
Sea Level Pressure  
Sea Level Pressure 29.80 in    
Wind  
Wind Speed 4 mph (WSW)    
Max Wind Speed 9 mph    
Max Gust Speed -    
Visibility 10 miles    
Events Rain    
Averages and records for this station are not official NWS values.
T = Trace of Precipitation, MM = Missing Value Source: NWS Daily Summary

Daily Weather History Graph

Daily Weather History Graph

Search for Another Location

Airport or City:

Trip Planner

Search our weather history database for the weather conditions in past years. The results will help you decide how hot, cold, wet, or windy it might be!

Date:

Astronomy

Oct. 02, 2011 Rise Set
Actual Time 6:57 AM EDT 6:41 PM EDT
Civil Twilight 6:30 AM EDT 7:08 PM EDT
Nautical Twilight 5:59 AM EDT 7:39 PM EDT
Astronomical Twilight 5:27 AM EDT 8:10 PM EDT
Moon 12:59 PM EDT (10/2) 10:39 PM EDT (10/2)
Length of Visible Light 12h 38m
Length of Day
11h 44m
Waxing Crescent, 34% of the Moon is Illuminated
Oct 2
Waxing Crescent
Oct 3
First Quarter
Oct 11
Full
Oct 19
Last Quarter
Oct 26
New

Hourly Weather History & Observations

Time (EDT) Temp. Dew Point Humidity Pressure Visibility Wind Dir Wind Speed Gust Speed Precip Events Conditions
12:05 AM 55.4 °F 51.8 °F 88% 29.71 in 10.0 mi West 5.8 mph - N/A   Overcast
12:54 AM 54.0 °F 51.1 °F 90% 29.70 in 10.0 mi Calm Calm - 0.00 in Rain Light Rain
1:07 AM 53.6 °F 51.8 °F 94% 29.71 in 5.0 mi Variable 3.5 mph - 0.01 in Rain Light Rain
1:14 AM 53.6 °F 51.8 °F 94% 29.71 in 8.0 mi WSW 4.6 mph - 0.01 in Rain Light Rain
2:54 AM 53.1 °F 51.1 °F 93% 29.70 in 10.0 mi Variable 3.5 mph - 0.02 in   Overcast
3:09 AM 51.8 °F 50.0 °F 94% 29.69 in 10.0 mi SSW 3.5 mph - N/A   Overcast
3:54 AM 52.0 °F 48.9 °F 89% 29.70 in 10.0 mi Calm Calm - N/A   Overcast
4:46 AM 51.8 °F 48.2 °F 88% 29.70 in 10.0 mi Variable 3.5 mph - N/A   Overcast
4:54 AM 51.1 °F 48.0 °F 89% 29.70 in 10.0 mi Variable 4.6 mph - N/A   Overcast
5:54 AM 52.0 °F 48.0 °F 86% 29.72 in 8.0 mi Variable 5.8 mph - 0.01 in Rain Light Rain
6:25 AM 51.8 °F 48.2 °F 88% 29.73 in 8.0 mi WSW 8.1 mph - 0.01 in Rain Light Rain
6:54 AM 50.0 °F 48.0 °F 93% 29.74 in 10.0 mi WSW 4.6 mph - 0.01 in   Mostly Cloudy
7:22 AM 50.0 °F 48.2 °F 94% 29.75 in 10.0 mi SW 5.8 mph - N/A   Mostly Cloudy
7:54 AM 51.1 °F 48.0 °F 89% 29.74 in 10.0 mi West 9.2 mph - N/A   Overcast
8:54 AM 53.1 °F 48.0 °F 83% 29.76 in 10.0 mi WSW 8.1 mph - N/A   Mostly Cloudy
9:54 AM 53.1 °F 46.9 °F 80% 29.78 in 10.0 mi West 8.1 mph - N/A   Mostly Cloudy
10:41 AM 53.6 °F 46.4 °F 77% 29.79 in 10.0 mi SW 3.5 mph - 0.00 in   Overcast
10:51 AM 51.8 °F 46.4 °F 82% 29.79 in 10.0 mi Calm Calm - 0.00 in   Overcast
10:54 AM 52.0 °F 46.9 °F 83% 29.79 in 10.0 mi WSW 3.5 mph - 0.00 in   Overcast
11:36 AM 53.6 °F 46.4 °F 77% 29.80 in 10.0 mi WSW 6.9 mph - N/A   Overcast
11:54 AM 52.0 °F 48.0 °F 86% 29.80 in 10.0 mi WSW 5.8 mph - N/A   Overcast
12:49 PM 51.8 °F 46.4 °F 82% 29.80 in 10.0 mi West 4.6 mph - 0.00 in Rain Light Rain
12:54 PM 52.0 °F 46.9 °F 83% 29.80 in 10.0 mi WNW 4.6 mph - 0.00 in   Overcast
1:54 PM 50.0 °F 48.0 °F 93% 29.81 in 3.0 mi WSW 6.9 mph - 0.02 in Rain Light Rain
2:37 PM 51.8 °F 46.4 °F 82% 29.81 in 9.0 mi WSW 5.8 mph - 0.00 in   Overcast
2:44 PM 51.8 °F 46.4 °F 82% 29.82 in 9.0 mi WSW 6.9 mph - 0.00 in   Overcast
2:54 PM 52.0 °F 46.9 °F 83% 29.81 in 10.0 mi WSW 5.8 mph - 0.00 in   Overcast
3:54 PM 52.0 °F 44.1 °F 74% 29.82 in 10.0 mi WSW 5.8 mph - 0.00 in Rain Light Rain
4:54 PM 52.0 °F 44.1 °F 74% 29.84 in 10.0 mi WSW 8.1 mph - 0.00 in   Overcast
6:03 PM 50.0 °F 44.6 °F 82% 29.86 in 10.0 mi WSW 6.9 mph - N/A   Overcast
6:54 PM 48.9 °F 44.1 °F 83% 29.87 in 10.0 mi West 5.8 mph - N/A   Overcast
7:54 PM 48.9 °F 44.1 °F 83% 29.88 in 10.0 mi WSW 4.6 mph - N/A   Overcast
8:13 PM 48.2 °F 44.6 °F 87% 29.90 in 10.0 mi Calm Calm - N/A   Overcast
8:20 PM 48.2 °F 44.6 °F 87% 29.90 in 10.0 mi Calm Calm - N/A   Mostly Cloudy
8:54 PM 48.0 °F 44.1 °F 86% 29.90 in 10.0 mi WSW 3.5 mph - N/A   Overcast
9:54 PM 48.0 °F 44.1 °F 86% 29.92 in 10.0 mi Calm Calm - N/A   Overcast
10:54 PM 48.0 °F 44.1 °F 86% 29.92 in 10.0 mi Calm Calm - N/A   Overcast
11:46 PM 48.2 °F 44.6 °F 87% 29.93 in 10.0 mi WSW 3.5 mph - 0.00 in   Overcast
11:54 PM 48.0 °F 45.0 °F 89% 29.93 in 10.0 mi Calm Calm - 0.00 in   Overcast